Time,TemperatureF,DewpointF,PressureIn,WindDirection,WindDirectionDegrees,WindSpeedMPH,WindSpeedGustMPH,Humidity,HourlyPrecipIn,Conditions,Clouds,dailyrainin,SolarRadiationWatts/m^2,SoftwareType,DateUTC
2013-02-07 00:08:00,18.8,16.0,30.20,ENE,76,0.0,0.0,90,0.00,,,0.00,0,weatherlink.com 1.10,2013-02-07 05:08:00,
2013-02-07 00:23:00,18.8,16.0,30.20,ENE,76,0.0,0.0,90,0.00,,,0.00,0,weatherlink.com 1.10,2013-02-07 05:23:00,
2013-02-07 00:37:00,18.8,16.0,30.19,ENE,76,0.0,0.0,90,0.00,,,0.00,0,weatherlink.com 1.10,2013-02-07 05:37:00,
2013-02-07 00:52:00,18.9,17.0,30.20,ENE,76,0.0,0.0,91,0.00,,,0.00,0,weatherlink.com 1.10,2013-02-07 05:52:00,
2013-02-07 01:07:00,18.9,17.0,30.20,ENE,76,0.0,0.0,91,0.00,,,0.00,0,weatherlink.com 1.10,2013-02-07 06:07:00,
2013-02-07 01:37:00,18.9,17.0,30.19,ENE,76,0.0,0.0,91,0.00,,,0.00,0,weatherlink.com 1.10,2013-02-07 06:37:00,
2013-02-07 01:52:00,18.9,17.0,30.19,ENE,76,0.0,0.0,91,0.00,,,0.00,0,weatherlink.com 1.10,2013-02-07 06:52:00,
2013-02-07 02:08:00,18.9,17.0,30.20,ENE,76,0.0,0.0,91,0.00,,,0.00,0,weatherlink.com 1.10,2013-02-07 07:08:00,
2013-02-07 02:22:00,18.9,17.0,30.20,ENE,76,0.0,0.0,91,0.00,,,0.00,0,weatherlink.com 1.10,2013-02-07 07:22:00,
2013-02-07 02:37:00,18.8,17.0,30.20,ENE,76,0.0,0.0,91,0.00,,,0.00,0,weatherlink.com 1.10,2013-02-07 07:37:00,
2013-02-07 02:52:00,18.8,17.0,30.20,ENE,76,0.0,0.0,91,0.00,,,0.00,0,weatherlink.com 1.10,2013-02-07 07:52:00,
2013-02-07 03:09:00,18.8,17.0,30.20,ENE,76,0.0,0.0,91,0.00,,,0.00,0,weatherlink.com 1.10,2013-02-07 08:09:00,
2013-02-07 03:22:00,18.9,17.0,30.19,ENE,76,0.0,0.0,91,0.00,,,0.00,0,weatherlink.com 1.10,2013-02-07 08:22:00,
2013-02-07 03:37:00,18.9,17.0,30.19,ENE,76,0.0,0.0,91,0.00,,,0.00,0,weatherlink.com 1.10,2013-02-07 08:37:00,
2013-02-07 03:53:00,18.9,17.0,30.19,ENE,76,0.0,0.0,91,0.00,,,0.00,0,weatherlink.com 1.10,2013-02-07 08:53:00,
2013-02-07 04:08:00,18.9,17.0,30.18,ENE,76,0.0,0.0,91,0.00,,,0.00,0,weatherlink.com 1.10,2013-02-07 09:08:00,
2013-02-07 04:23:00,18.9,17.0,30.18,ENE,76,0.0,0.0,91,0.00,,,0.00,0,weatherlink.com 1.10,2013-02-07 09:23:00,
2013-02-07 04:38:00,18.9,17.0,30.18,ENE,76,0.0,0.0,91,0.00,,,0.00,0,weatherlink.com 1.10,2013-02-07 09:38:00,
2013-02-07 04:53:00,18.9,17.0,30.18,ENE,76,0.0,0.0,91,0.00,,,0.00,0,weatherlink.com 1.10,2013-02-07 09:53:00,
2013-02-07 05:08:00,18.9,17.0,30.17,ENE,76,0.0,0.0,91,0.00,,,0.00,0,weatherlink.com 1.10,2013-02-07 10:08:00,
2013-02-07 05:23:00,19.0,17.0,30.18,ENE,76,0.0,0.0,91,0.00,,,0.00,0,weatherlink.com 1.10,2013-02-07 10:23:00,
2013-02-07 05:38:00,19.0,17.0,30.17,ENE,76,0.0,0.0,91,0.00,,,0.00,0,weatherlink.com 1.10,2013-02-07 10:38:00,
2013-02-07 05:53:00,19.1,17.0,30.16,ENE,76,0.0,0.0,91,0.00,,,0.00,0,weatherlink.com 1.10,2013-02-07 10:53:00,
2013-02-07 06:08:00,19.2,17.0,30.17,ENE,76,0.0,0.0,91,0.00,,,0.00,0,weatherlink.com 1.10,2013-02-07 11:08:00,
2013-02-07 06:23:00,19.6,18.0,30.17,ENE,76,0.0,2.0,92,0.00,,,0.00,0,weatherlink.com 1.10,2013-02-07 11:23:00,
2013-02-07 06:38:00,19.9,18.0,30.17,ENE,76,0.0,2.0,91,0.00,,,0.00,0,weatherlink.com 1.10,2013-02-07 11:38:00,
2013-02-07 06:53:00,20.1,18.0,30.17,ENE,76,0.0,0.0,91,0.00,,,0.00,0,weatherlink.com 1.10,2013-02-07 11:53:00,
2013-02-07 07:08:00,20.2,18.0,30.17,ENE,76,0.0,1.0,91,0.00,,,0.00,0,weatherlink.com 1.10,2013-02-07 12:08:00,
2013-02-07 07:23:00,20.2,18.0,30.16,ENE,76,0.0,0.0,91,0.00,,,0.00,0,weatherlink.com 1.10,2013-02-07 12:23:00,
2013-02-07 07:38:00,20.3,18.0,30.16,ENE,76,0.0,0.0,91,0.00,,,0.00,0,weatherlink.com 1.10,2013-02-07 12:38:00,
2013-02-07 07:53:00,20.2,18.0,30.17,ENE,76,0.0,0.0,91,0.00,,,0.00,0,weatherlink.com 1.10,2013-02-07 12:53:00,
2013-02-07 08:08:00,20.2,18.0,30.17,ENE,76,0.0,0.0,91,0.00,,,0.00,0,weatherlink.com 1.10,2013-02-07 13:08:00,
2013-02-07 08:23:00,20.3,18.0,30.17,ENE,76,0.0,3.0,91,0.00,,,0.00,0,weatherlink.com 1.10,2013-02-07 13:23:00,
2013-02-07 08:38:00,20.4,18.0,30.18,ENE,76,0.0,0.0,91,0.00,,,0.00,0,weatherlink.com 1.10,2013-02-07 13:38:00,
2013-02-07 08:53:00,20.4,18.0,30.18,ENE,76,0.0,0.0,91,0.00,,,0.00,5,weatherlink.com 1.10,2013-02-07 13:53:00,
2013-02-07 09:08:00,20.5,18.0,30.18,ENE,76,0.0,0.0,91,0.00,,,0.00,9,weatherlink.com 1.10,2013-02-07 14:08:00,
2013-02-07 09:38:00,21.0,19.0,30.18,ENE,76,0.0,0.0,91,0.00,,,0.00,12,weatherlink.com 1.10,2013-02-07 14:38:00,
2013-02-07 09:53:00,22.1,20.0,30.19,ENE,76,0.0,3.0,93,0.00,,,0.00,18,weatherlink.com 1.10,2013-02-07 14:53:00,
2013-02-07 10:08:00,22.9,21.0,30.19,ENE,57,1.0,6.0,92,0.00,,,0.00,14,weatherlink.com 1.10,2013-02-07 15:08:00,
2013-02-07 10:24:00,22.7,20.0,30.20,SE,128,2.0,3.0,90,0.00,,,0.00,16,weatherlink.com 1.10,2013-02-07 15:24:00,
2013-02-07 10:38:00,22.3,20.0,30.20,ENE,74,2.0,3.0,91,0.00,,,0.00,18,weatherlink.com 1.10,2013-02-07 15:38:00,
2013-02-07 10:53:00,22.2,20.0,30.20,ENE,74,0.0,2.0,91,0.00,,,0.00,18,weatherlink.com 1.10,2013-02-07 15:53:00,
2013-02-07 11:08:00,22.2,20.0,30.20,NE,49,2.0,4.0,92,0.00,,,0.00,28,weatherlink.com 1.10,2013-02-07 16:08:00,
2013-02-07 11:24:00,22.1,20.0,30.19,East,80,0.0,7.0,92,0.00,,,0.00,26,weatherlink.com 1.10,2013-02-07 16:24:00,
2013-02-07 11:38:00,22.2,20.0,30.20,ENE,77,1.0,3.0,92,0.00,,,0.00,28,weatherlink.com 1.10,2013-02-07 16:38:00,
2013-02-07 11:53:00,22.4,21.0,30.20,ENE,77,0.0,4.0,92,0.00,,,0.00,26,weatherlink.com 1.10,2013-02-07 16:53:00,
2013-02-07 12:09:00,22.5,21.0,30.20,NE,38,0.0,5.0,92,0.00,,,0.00,28,weatherlink.com 1.10,2013-02-07 17:09:00,
2013-02-07 12:23:00,22.7,21.0,30.21,East,84,2.0,3.0,91,0.00,,,0.00,28,weatherlink.com 1.10,2013-02-07 17:23:00,
2013-02-07 12:38:00,22.8,21.0,30.21,East,84,1.0,6.0,91,0.00,,,0.00,25,weatherlink.com 1.10,2013-02-07 17:38:00,
2013-02-07 12:53:00,23.0,21.0,30.20,NNE,28,2.0,7.0,91,0.00,,,0.00,30,weatherlink.com 1.10,2013-02-07 17:53:00,
2013-02-07 13:08:00,23.2,21.0,30.19,ENE,76,0.0,8.0,91,0.00,,,0.00,39,weatherlink.com 1.10,2013-02-07 18:08:00,
2013-02-07 13:23:00,23.3,21.0,30.18,ENE,67,3.0,8.0,90,0.00,,,0.00,37,weatherlink.com 1.10,2013-02-07 18:23:00,
2013-02-07 13:39:00,23.4,21.0,30.17,NNE,28,1.0,8.0,90,0.00,,,0.00,39,weatherlink.com 1.10,2013-02-07 18:39:00,
2013-02-07 13:53:00,23.5,21.0,30.17,North,5,5.0,8.0,90,0.00,,,0.00,33,weatherlink.com 1.10,2013-02-07 18:53:00,
2013-02-07 14:08:00,23.6,21.0,30.17,NE,41,1.0,8.0,90,0.00,,,0.00,23,weatherlink.com 1.10,2013-02-07 19:08:00,
2013-02-07 14:23:00,23.8,21.0,30.17,NNE,30,7.0,11.0,90,0.00,,,0.00,19,weatherlink.com 1.10,2013-02-07 19:23:00,
2013-02-07 14:39:00,24.0,22.0,30.17,NE,42,3.0,9.0,90,0.00,,,0.00,18,weatherlink.com 1.10,2013-02-07 19:39:00,
2013-02-07 14:54:00,24.2,22.0,30.17,NNE,24,7.0,11.0,89,0.00,,,0.00,18,weatherlink.com 1.10,2013-02-07 19:54:00,
2013-02-07 15:09:00,24.2,22.0,30.16,ENE,59,5.0,9.0,89,0.00,,,0.00,18,weatherlink.com 1.10,2013-02-07 20:09:00,
2013-02-07 15:24:00,24.2,21.0,30.16,ENE,66,4.0,8.0,88,0.00,,,0.00,18,weatherlink.com 1.10,2013-02-07 20:24:00,
2013-02-07 15:39:00,24.2,22.0,30.16,NNE,26,2.0,9.0,89,0.00,,,0.00,14,weatherlink.com 1.10,2013-02-07 20:39:00,
2013-02-07 15:54:00,24.4,22.0,30.16,NE,44,5.0,9.0,89,0.00,,,0.00,16,weatherlink.com 1.10,2013-02-07 20:54:00,
2013-02-07 16:09:00,24.5,22.0,30.17,ENE,76,4.0,10.0,88,0.00,,,0.00,12,weatherlink.com 1.10,2013-02-07 21:09:00,
2013-02-07 16:24:00,24.6,21.0,30.16,NNE,28,4.0,11.0,87,0.00,,,0.00,11,weatherlink.com 1.10,2013-02-07 21:24:00,
2013-02-07 16:39:00,24.8,22.0,30.17,NNE,27,4.0,14.0,87,0.00,,,0.00,7,weatherlink.com 1.10,2013-02-07 21:39:00,
2013-02-07 16:54:00,25.0,22.0,30.17,NE,42,4.0,9.0,87,0.00,,,0.00,5,weatherlink.com 1.10,2013-02-07 21:54:00,
2013-02-07 17:09:00,25.2,21.0,30.18,NNE,14,7.0,11.0,85,0.00,,,0.00,5,weatherlink.com 1.10,2013-02-07 22:09:00,
2013-02-07 17:24:00,25.3,21.0,30.17,SE,126,4.0,14.0,83,0.00,,,0.00,0,weatherlink.com 1.10,2013-02-07 22:24:00,
2013-02-07 17:39:00,25.3,21.0,30.18,North,355,2.0,15.0,84,0.00,,,0.00,0,weatherlink.com 1.10,2013-02-07 22:39:00,
2013-02-07 17:54:00,25.4,21.0,30.18,East,88,8.0,13.0,83,0.00,,,0.00,0,weatherlink.com 1.10,2013-02-07 22:54:00,
2013-02-07 18:24:00,25.0,20.0,30.19,NNW,338,6.0,14.0,82,0.00,,,0.00,0,weatherlink.com 1.10,2013-02-07 23:24:00,
2013-02-07 18:39:00,25.0,20.0,30.20,ENE,76,7.0,16.0,82,0.00,,,0.00,0,weatherlink.com 1.10,2013-02-07 23:39:00,
2013-02-07 18:54:00,25.0,20.0,30.20,NNW,329,2.0,9.0,82,0.00,,,0.00,0,weatherlink.com 1.10,2013-02-07 23:54:00,
2013-02-07 19:09:00,24.9,20.0,30.21,NNW,344,2.0,12.0,82,0.00,,,0.00,0,weatherlink.com 1.10,2013-02-08 00:09:00,
2013-02-07 19:24:00,24.9,20.0,30.20,North,9,1.0,16.0,81,0.00,,,0.00,0,weatherlink.com 1.10,2013-02-08 00:24:00,
2013-02-07 19:39:00,25.0,20.0,30.20,NNE,15,8.0,12.0,80,0.00,,,0.00,0,weatherlink.com 1.10,2013-02-08 00:39:00,
2013-02-07 19:54:00,25.1,19.0,30.20,NE,38,5.0,14.0,79,0.00,,,0.00,0,weatherlink.com 1.10,2013-02-08 00:54:00,
2013-02-07 20:09:00,25.1,20.0,30.20,NW,311,7.0,15.0,80,0.00,,,0.00,0,weatherlink.com 1.10,2013-02-08 01:09:00,
2013-02-07 20:25:00,25.2,19.0,30.19,NE,54,7.0,17.0,78,0.00,,,0.00,0,weatherlink.com 1.10,2013-02-08 01:25:00,
2013-02-07 20:39:00,25.2,19.0,30.20,NE,54,3.0,13.0,77,0.00,,,0.00,0,weatherlink.com 1.10,2013-02-08 01:39:00,
2013-02-07 20:54:00,25.3,19.0,30.19,North,5,4.0,13.0,77,0.00,,,0.00,0,weatherlink.com 1.10,2013-02-08 01:54:00,
2013-02-07 21:10:00,25.3,19.0,30.19,NW,306,3.0,11.0,76,0.00,,,0.00,0,weatherlink.com 1.10,2013-02-08 02:10:00,
2013-02-07 21:25:00,25.2,18.0,30.19,NNW,337,4.0,10.0,75,0.00,,,0.00,0,weatherlink.com 1.10,2013-02-08 02:25:00,
2013-02-07 21:39:00,25.2,18.0,30.20,North,360,3.0,10.0,75,0.00,,,0.00,0,weatherlink.com 1.10,2013-02-08 02:39:00,
2013-02-07 21:54:00,25.2,18.0,30.20,North,349,4.0,13.0,75,0.00,,,0.00,0,weatherlink.com 1.10,2013-02-08 02:54:00,
2013-02-07 22:10:00,25.1,18.0,30.20,WNW,298,2.0,10.0,73,0.00,,,0.00,0,weatherlink.com 1.10,2013-02-08 03:10:00,
2013-02-07 22:24:00,24.9,17.0,30.20,NNW,336,2.0,13.0,73,0.00,,,0.00,0,weatherlink.com 1.10,2013-02-08 03:24:00,
2013-02-07 22:39:00,24.8,17.0,30.21,NE,48,4.0,12.0,73,0.00,,,0.00,0,weatherlink.com 1.10,2013-02-08 03:39:00,
2013-02-07 22:54:00,24.8,17.0,30.21,NNW,330,2.0,9.0,73,0.00,,,0.00,0,weatherlink.com 1.10,2013-02-08 03:54:00,
2013-02-07 23:10:00,24.6,17.0,30.21,NNW,331,4.0,8.0,73,0.00,,,0.00,0,weatherlink.com 1.10,2013-02-08 04:10:00,
2013-02-07 23:25:00,24.5,17.0,30.21,NNW,329,2.0,9.0,73,0.00,,,0.00,0,weatherlink.com 1.10,2013-02-08 04:25:00,
2013-02-07 23:39:00,24.3,17.0,30.21,NW,319,2.0,9.0,74,0.00,,,0.00,0,weatherlink.com 1.10,2013-02-08 04:39:00,
2013-02-07 23:54:00,24.1,17.0,30.20,NW,319,5.0,9.0,73,0.00,,,0.00,0,weatherlink.com 1.10,2013-02-08 04:54:00,